DW0980 Weather Reports


time (UTC)temp
F
wind
direction
speed
knots
gust
knots
rain 1hr
in
rain 24hr
in
rain mn
in
humidity
%
barometer
mb
20260507143021 54 279 5.2 13.9 0.00 0.23 0.00 68 1006.7
20260507141524 53 262 0.0 10.4 0.00 0.23 0.00 70 1006.8
20260507140019 55 253 2.6 12.2 0.00 0.23 0.00 68 1006.8
20260507134518 54 282 0.9 7.8 0.00 0.23 0.00 73 1006.8
20260507133015 53 282 2.6 9.6 0.00 0.23 0.00 72 1006.9
20260507131513 53 281 2.6 9.6 0.00 0.23 0.00 74 1007.1
20260507130025 53 243 4.3 13.9 0.00 0.23 0.00 76 1007.2
20260507124511 52 271 0.0 6.1 0.00 0.23 0.00 80 1007.1
20260507123004 51 267 0.0 3.5 0.00 0.23 0.00 82 1007.0
20260507121502 50 267 0.0 6.1 0.00 0.23 0.00 82 1006.9
20260507120059 49 279 0.0 3.5 0.00 0.23 0.00 88 1007.1
20260507114600 48 279 0.9 3.5 0.00 0.23 0.00 92 1007.2
20260507113053 45 279 0.0 1.7 0.00 0.23 0.00 95 1007.1
20260507111557 43 279 0.0 0.0 0.00 0.23 0.00 95 1007.1
20260507110046 43 279 0.0 0.0 0.00 0.23 0.00 95 1007.0
20260507104544 42 279 0.0 0.0 0.00 0.23 0.00 94 1006.7
20260507103042 42 279 0.0 0.0 0.00 0.23 0.00 93 1006.6
20260507101546 42 279 0.0 0.0 0.00 0.23 0.00 93 1006.6
20260507100040 43 279 0.0 0.0 0.00 0.23 0.00 92 1006.8
20260507094540 44 279 0.0 0.0 0.00 0.23 0.00 93 1006.6
20260507093042 44 274 0.0 6.1 0.00 0.23 0.00 93 1006.9
20260507091537 44 278 0.0 6.1 0.00 0.23 0.00 93 1007.2
20260507090031 44 298 0.0 0.0 0.00 0.23 0.00 94 1007.2
20260507084529 44 298 0.0 0.0 0.00 0.23 0.00 93 1006.6
20260507083029 44 298 0.0 0.0 0.00 0.23 0.00 93 1006.6
20260507081534 44 298 0.0 0.0 0.00 0.23 0.00 93 1006.5
20260507080024 45 298 0.0 0.0 0.00 0.23 0.00 94 1006.4
20260507074522 45 298 0.0 0.0 0.00 0.23 0.00 93 1006.5
20260507073021 45 298 0.0 0.0 0.00 0.23 0.00 92 1006.2
20260507071521 45 298 0.0 0.0 0.00 0.23 0.00 92 1006.3
20260507070017 46 298 0.0 0.0 0.00 0.23 0.00 92 1006.0
20260507064516 46 298 0.0 0.0 0.00 0.23 0.00 91 1005.8
20260507063015 46 298 0.0 3.5 0.00 0.23 0.00 91 1006.2
20260507061514 46 299 0.0 7.8 0.00 0.23 0.00 91 1006.0
20260507060012 46 287 0.0 6.1 0.00 0.23 0.00 93 1005.9
20260507054511 47 271 0.0 6.1 0.00 0.23 0.00 93 1006.1
20260507053010 47 265 0.9 5.2 0.00 0.23 0.00 93 1006.2
20260507051507 47 265 0.9 3.5 0.00 0.23 0.00 94 1005.9
20260507050008 48 264 0.0 0.0 0.00 0.24 0.00 94 1005.8
20260507044502 48 264 0.9 3.5 0.00 0.24 0.00 94 1005.9
20260507043001 48 264 0.0 0.0 0.00 0.24 0.00 94 1005.8
20260507041611 49 264 0.0 0.0 0.00 0.24 0.00 94 1006.2
20260507040059 49 264 0.0 0.0 0.00 0.24 0.24 93 1006.0
20260507034557 49 264 0.0 0.0 0.02 0.24 0.24 93 1005.9
20260507033052 50 264 0.0 0.0 0.04 0.24 0.24 93 1005.8
20260507031550 50 264 0.0 0.0 0.04 0.24 0.24 93 1005.8
20260507030051 51 263 0.0 0.0 0.05 0.24 0.24 93 1005.8
20260507024545 52 263 0.0 0.0 0.03 0.22 0.22 92 1006.0
20260507023043 53 261 0.9 6.1 0.02 0.20 0.20 92 1005.9
20260507021549 54 275 0.0 0.0 0.03 0.20 0.20 94 1005.4
20260507020042 54 274 0.0 5.2 0.02 0.19 0.19 93 1005.0
20260507014554 55 290 0.9 7.0 0.04 0.19 0.19 93 1004.6
20260507013048 56 284 0.0 4.3 0.03 0.18 0.18 93 1004.4
20260507011541 57 294 0.0 0.0 0.02 0.17 0.17 93 1004.2
20260507010039 58 288 0.0 8.7 0.02 0.18 0.17 93 1004.1
20260507004539 59 204 0.0 0.0 0.00 0.16 0.15 94 1003.8
20260507003038 59 204 0.0 0.0 0.00 0.16 0.15 94 1003.4
20260507001547 59 204 0.0 0.0 0.00 0.16 0.15 94 1003.4
20260507000036 59 202 0.0 3.5 0.00 0.17 0.15 94 1003.3
20260506234535 59 201 0.0 0.0 0.00 0.17 0.15 94 1003.0
20260506233040 59 201 0.0 5.2 0.01 0.17 0.15 94 1002.9
20260506231534 59 217 0.0 3.5 0.01 0.17 0.15 94 1003.1
20260506230034 59 230 0.9 5.2 0.01 0.17 0.15 93 1003.1
20260506224533 60 248 0.0 7.0 0.01 0.17 0.15 93 1003.2
20260506223032 60 221 0.9 13.0 0.00 0.16 0.14 92 1003.2
20260506221532 60 179 5.2 10.4 0.00 0.16 0.14 92 1003.2
20260506220033 60 207 6.1 16.5 0.00 0.16 0.14 93 1003.3
20260506214531 61 165 4.3 9.6 0.01 0.16 0.14 94 1003.2
20260506213029 61 179 1.7 7.8 0.01 0.16 0.14 95 1003.0
20260506211526 61 182 0.9 6.1 0.01 0.16 0.14 95 1003.5
20260506210026 61 171 2.6 7.8 0.01 0.16 0.14 95 1003.5
20260506204525 61 195 0.9 7.0 0.02 0.15 0.13 95 1003.5
20260506203024 62 227 0.0 7.0 0.04 0.15 0.13 95 1003.6
20260506201524 61 170 1.7 7.0 0.05 0.15 0.13 95 1003.6
20260506200022 61 166 3.5 8.7 0.05 0.15 0.13 95 1003.7
20260506194520 61 165 1.7 6.1 0.04 0.13 0.11 95 1003.9
20260506193019 61 181 0.0 3.5 0.03 0.11 0.09 94 1004.1
20260506191519 61 181 0.0 3.5 0.03 0.10 0.08 94 1004.0
20260506190018 61 181 0.0 0.0 0.04 0.10 0.08 93 1004.0
20260506184514 61 182 0.9 5.2 0.04 0.09 0.07 93 1004.6
20260506183011 61 202 0.0 3.5 0.04 0.08 0.06 92 1005.0
20260506181510 61 187 0.9 5.2 0.04 0.07 0.05 91 1005.1
20260506180010 62 182 0.9 7.0 0.03 0.06 0.04 89 1005.3
20260506174509 62 227 1.7 8.7 0.02 0.05 0.03 87 1005.6
20260506173008 63 227 3.5 10.4 0.01 0.04 0.02 84 1005.6
20260506171508 65 221 6.1 13.0 0.00 0.03 0.01 80 1005.4
20260506170008 66 220 2.6 7.8 0.00 0.03 0.01 76 1005.3
20260506164506 67 187 1.7 11.3 0.00 0.03 0.01 74 1005.1
20260506163012 67 225 2.6 12.2 0.00 0.03 0.01 74 1005.3
20260506161503 67 198 7.8 13.9 0.00 0.03 0.01 71 1005.6
20260506160109 67 232 2.6 11.3 0.00 0.03 0.01 75 1005.8
20260506154557 67 204 0.9 7.0 0.00 0.03 0.01 76 1006.1
20260506153055 66 222 0.9 7.8 0.00 0.03 0.01 75 1006.5
20260506151554 66 225 0.0 6.1 0.00 0.03 0.01 76 1006.6
20260506150055 66 232 1.7 10.4 0.00 0.03 0.01 75 1006.6
20260506144553 66 231 0.0 6.1 0.00 0.03 0.01 76 1006.4